Погода Усть-Юдома

Погода Усть-Юдома : погода сейчас, прогноз погоды и архив. Всё, что Вы хотите узнать о погоде Усть-Юдома!

Хотите узнать прогноз погоды Усть-Юдома? Тогда Вам сюда: Погода Усть-Юдома

Поиск расширенной информации на нашем сайте:

Другие новости

Новости СМИ2

Главная страница сайта

Новости сайта

03.07.2017

Напоминаем, что на нашем специализированном сайте Метеоцентр.Азия вы можете получить высокодетализированные автоматические прогнозы погоды по пунктам России, СНГ и мира в авиационном формате (включающие направление и скорость ветра, видимость, явления погоды, количество и форму облачности, нижнюю и верхнюю границу облачности).

Рекомендуем: предлагаются помещения арендовать офис в бц Ректорский дом у метро Тверская на выгодных условиях

Погода Усть-Юдома - сегодня

Время (UTC), дата Ветер
(°,м/с) 
Видим.   Явления Облачность Т
(°С)
Тd
(°С)
f(%) Тe
(°С)
Pmin
(гПа)
dP
(гПа)
Po
(мм)
O2
(г/м3)
Тmin Tmax R s Состояние
почвы
15 16.01.18 тихо ()   20000 м    ясно 
-38.8 -41.2 78 -39  1019.3  0.1  741  350           
18 16.01.18 тихо ()   20000 м    ясно 
-39.4 -41.7 79 -39  1019.5  0.2  741  351           
21 16.01.18 тихо ()   20000 м    ясно 
-39.4 -41.7 79 -39  1020.2  0.7  742  351  -39.9      32  равномерный
сухой снег
100% 
00 17.01.18 тихо ()   20000 м    ясно 
-40.3 -42.7 78 -40  1021.3  0.9  743  353           
03 17.01.18 тихо ()   20000 м    ясно 
-36.5 -39.4 74 -37  1021.3  0.4  743  348           
06 17.01.18 тихо ()   20000 м    ясно 
-33.8 -36.8 74 -34  1020.7  -0.2  743  343           
09 17.01.18 тихо ()   20000 м    ясно 
-37.8 -40.5 76 -38  1021.6  0.4  743  350    -33.8       
12 17.01.18 тихо ()   20000 м    ясно 
-39.9 -42.8 74 -40  1022.3  0.4  743  353           
15 17.01.18 тихо ()   20000 м    ясно 
-40.7 -43.3 76 -41  1022.3  -0.1  743  354           
18 17.01.18 тихо ()   20000 м    ясно 
-40.8 -43.8 73 -41  1022.2  -0.1  743  354           
21 17.01.18 тихо ()   20000 м    ясно 
-39.6 -42.3 76 -40  1021.8  -0.3  743  352  -40.8      32  равномерный
сухой снег
100% 
00 18.01.18 тихо ()   20000 м    10/0 средняя, верхняя 
[As trans|Cs]
-39 -41.2 80 -39  1021.7  0.1  743  351           
03 18.01.18 тихо ()   20000 м    6/0 средняя, верхняя 
[As trans|Cs]
-37.8 -40.5 76 -38  1021.5  -0.1  743  349           
06 18.01.18 тихо ()   20000 м    3/0 верхняя 
[Ci fib]
-34.2 -37.1 75 -34  1020.7  -0.3  743  344           
09 18.01.18 тихо ()   20000 м    ясно 
-37.3 -40.1 75 -37  1021.8  0.7  743  349    -34.2       
12 18.01.18 тихо ()   20000 м    ясно 
-39.8 -42.2 78 -40  1023.2  744  353           
15 18.01.18 тихо ()   20000 м    ясно 
-41.1 -43.8 75 -41  1024.3  0.8  745  355           
18 18.01.18 тихо ()   20000 м    ясно 
-41.4 -44.4 73 -41  1024.9  0.6  745  356           
21 18.01.18 тихо ()   20000 м    ясно 
-40.1 -42.8 75 -40  1025.3  0.6  745  354  -41.7      32  равномерный
сухой снег
100% 
00 19.01.18 тихо ()   20000 м    1/0 верхняя 
[Ci fib]
-40.6 -43.3 75 -41  1026.7  1.2  746  355           
03 19.01.18 тихо ()   20000 м    3/0 верхняя 
[Ci fib]
-37 -39.8 75 -37  1026.6  0.5  747  350           
06 19.01.18 тихо ()   20000 м    6/0 средняя 
[As trans]
-34.8 -37.7 75 -35  1026.9  0.5  747  347           
09 19.01.18 тихо ()   20000 м    6/0 средняя 
[As trans]
-38 -40.9 74 -38  1028.8  1.4  748  352    -34.8       
12 19.01.18 тихо ()   20000 м    ясно 
-41.2 -43.8 76 -41  1031.2  1.8  749  358           
15 19.01.18 тихо ()   20000 м    ясно 
-42.9 -45.6 75 -43  1032.7  1.4  751  361           
Время (UTC), дата Ветер
(°,м/с) 
Видим.   Явления Облачность Т
(°С)
Тd
(°С)
f(%) Тe
(°С)
Pmin
(гПа)
dP
(гПа)
Po
(мм)
O2
(г/м3)
Тmin Tmax R s Состояние
почвы

Для получения пояснительной информации подведите курсор к названию столбца.

ПОГОДА Усть-Юдома - архив

Всё, что Вы хотите узнать о погоде Усть-Юдома - удобно и подробно!

Выберите нужную дату (начиная с 1 января 2015* года) и нажмите кнопку "Найти".
Будут отображены архивные сводки погоды по пункту Усть-Юдома, начиная с указанной даты.


Отображать данные в формате CSV (для использования в таблицах Excel)


Внимание! Наш архив погоды предназначен исключительно для личного некоммерческого использования в познавательных целях. Если Вам необходимы официальные справки о состоянии погоды (для производственных, юридических, коммерческих и т.п. целей), обращайтесь в органы Росгидромета.

*Примечание: данная дата относится к архиву по метеостанциям СССР (Россия, СНГ, Балтия).
Архив по метеостанциям Зарубежной Европы и Азии (кроме Китая) хранится 10 дней, по другим регионам земного шара (Китай, Африка, Америка, Австралия, Океания) - 1 день.

Усть-Юдома - район местоположения метеостанции


Название, широта, долгота, высота метеостанции:
Усть-Юдома 59.2°ш. 135.2°д. 212 м над ур. моря [Российская Федерация]

Дополнительная информация

В oтличие oт бoльшинства пoгoдных сайтoв мы публикуем пoдрoбную метеoинфoрмацию в детальнoм прoфессиoнальнoм фoрмате.

Характеристики температуры и влажнoсти вoздуха измеряются на высoте 2 м в тени вдали oт зданий и деревьев.
Скoрoсть ветра измеряется на высoте 10 м (на урoвне рoста челoвека скoрoсть ветра ниже в 1.5-2 раза). Если метеoстанция нахoдится в гoрoде или в лесу, тo скoрoсть ветра занижена на 2-4 м/с пo сравнению с oткрытым местoм. Скoрoсть ветра над акватoриями крупных рек и oзёр, а также на вершинах хoлмoв на 2-5 м/с выше, чем в oбычных услoвиях.
Атмoсфернoе давление в разных тoчках местнoсти мoжет значительнo oтличаться oт давления на метеoстанции, в зависимoсти oт услoвий рельефа (при пoдъёме на 10 м давление пoнижается примернo на 1 мм рт.ст.).